Location: ?????
(31.8092°N, 35.2590°E)
Time: 16:43:24
(UTC+00:00)

Cosmos 1536 Rocket - Pass Details

Date: 20 June 2021
Orbit: 604 x 633 km, 82.5° (Epoch: 04 August)

Event Time Altitude Azimuth Distance (km) Brightness Sun altitude
Exits shadow 18:51:04 45° 84° (E) 863 4.0 -21.5°
Drops below altitude 10° 18:55:08 10° 20° (NNE) 2,010 6.5 -22.0°
Sets 18:57:26 0° 14° (NNE) 2,917 7.5 -22.4°
